Weather in Paphos

Cyprus     34°46′28″N   32°25′22″E
temp.,
°C
wind,
m/s
gust,
m/s
humid.,
%
clouds,
%
prec.,
mm/h
press.,
hPa
HPBL,
m
6 march, sat
sat623:00+12nw22790 0.0 1025316
02:00+11nw227939 0.0 1024317
05:00+10n127867 0.0 1024288
08:00+13nnw116633 0.0 1025366
11:00+15wsw32590 0.0 1025661
14:00+16w44620 0.0 1023595
17:00+15wnw566767 0.0 1022654
20:00+13nnw347279 0.0 1022304
7 march, sun
sun723:00+13nnw347497 0.0 1022313
02:00+12nnw467899 0.0 1020423
05:00+12nnw56800 0.0 1019413
08:00+14nnw46701 0.0 1020743
11:00+16wnw67679 0.0 10191017
14:00+16wnw77687 0.0 10171044
17:00+15wnw78710 0.0 10161079
20:00+14wnw57771 0.0 1016452
8 march, mon
mon823:00+14wnw567917 0.0 1016408
02:00+14w67819 0.0 1014470
05:00+14wnw79792 0.1 1014482
08:00+15wnw78721 0.1 1014888
11:00+16w77695 0.0 10151015
14:00+16w89644 0.0 1014964
17:00+15wnw78660 0.0 1014820
20:00+13nw45661 0.0 1015361
9 march, tue
tue923:00+12wnw236867 0.0 1015387
02:00+12wnw237176 0.0 1015366
05:00+11nw237516 0.0 1015348
08:00+14wnw236326 0.0 1016575
11:00+16sw335881 0.0 1017726
14:00+16sw225990 0.0 1016662
17:00+15s2261100 0.0 1015351
20:00+13e1172100 0.0 1016130
10 march, wed
wed1023:00+14se4575100 0.1 1016192
02:00+14e577197 0.3 1014252
05:00+13e567314 0.0 1013212
08:00+16ese710667 0.0 1013518
11:00+20ese685223 0.0 1012691
14:00+20sse345929 0.0 1011518
17:00+18wsw126987 0.0 1009180
20:00+15nw238054 0.0 101054